[[{"header":{"parameterUnit":"m.s-1","parameterCategory":1,"la1":30.2991,"la2":30.254,"lo1":-89.0895,"lo2":-89.0444,"dy":0.0017,"dx":0.0017,"nx":28,"ny":28,"refTime":"2023-10-15T09:00:00:Z","depth":0,"parameterNumber":2,"parameterNumberName":"U-component_of_WINDS"},"data":[0,0,0,0,0,0,0,0,0,0,0,0,0,0,0,0,0,0,0,0,0,0,0,0,0,0,0,0,0,0,0,0,0,0,0,0,0,0,0,0,0,0,0,0,0,0,0,0,0,0,0,0,0,0,0,0,0,0,1.9763,1.9764,0,1.9798,1.9799,1.9799,1.979,1.979,1.9789,1.9788,1.9824,1.9825,1.9827,0,0,0,0,0,0,0,0,0,0,0,0,0,1.9689,1.969,1.9763,1.9764,1.9764,1.9798,1.9799,1.9799,1.9791,1.979,1.9789,1.9788,1.9823,1.9825,1.9827,0,0,0,0,0,0,0,0,0,0,0,0,0,1.9722,1.9691,1.9763,1.9764,1.9764,1.9798,1.9799,1.9799,1.9791,1.979,1.9789,1.9788,1.9823,1.9825,1.9827,1.9862,0,0,1.9834,1.9835,0,0,0,0,0,0,0,0,1.972,1.9725,1.9763,1.9764,1.9764,1.9789,1.9786,1.9821,1.9791,1.9781,1.9788,1.9787,1.9813,1.9816,1.9825,1.9864,1.9866,1.9835,1.9836,1.9837,1.9838,0,0,0,0,0,0,0,1.9718,1.9723,1.9777,1.9764,1.9765,1.9763,1.9766,1.9792,1.9802,1.9781,1.9781,1.9785,1.9813,1.9823,1.9826,1.9866,1.9835,1.9837,1.9838,1.9839,1.9938,1.9939,0,0,0,0,0,0,1.9715,1.9722,1.9776,1.9778,1.9739,1.9765,1.9769,1.9782,1.9802,1.9804,1.9786,1.9785,1.9819,1.9823,1.9827,1.987,1.9837,1.9839,1.9841,1.9937,1.9938,1.9939,0,0,0,0,0,0,1.9714,1.972,1.9775,1.975,1.9757,1.9767,1.9782,1.9783,1.9793,1.9805,1.9807,1.9794,1.9818,1.9823,1.9854,1.9871,1.984,1.9842,1.9935,1.9937,1.9939,1.9957,0,0,0,0,0,0,1.9712,1.972,1.9733,1.975,1.9758,1.9801,1.9783,1.9785,1.9797,1.9796,1.9813,1.9815,1.9818,1.9851,1.9856,1.9874,1.9844,1.9934,1.9936,1.9938,1.9954,1.9959,1.9962,0,0,0,0,0,1.9709,1.9736,1.9734,1.974,1.9775,1.9802,1.9806,1.9809,1.9798,1.9812,1.982,1.9815,1.9869,1.9854,1.986,1.9879,1.9932,1.9935,1.9938,1.9953,1.9958,1.9962,0,0,0,0,0,0,1.972,1.9738,1.9736,1.9769,1.9784,1.98,1.9817,1.9815,1.9833,1.983,1.9833,1.9837,1.9869,1.9877,1.986,1.9915,1.9899,1.9903,1.9908,1.9913,1.9917,1.9914,1.9846,0,0,0,0,0,1.9726,1.9747,1.9762,1.979,1.9798,1.9806,1.9818,1.982,1.9835,1.9841,1.9852,1.9867,1.9888,1.9901,1.992,1.9956,1.996,1.9972,1.9976,1.9979,1.9983,2.0003,2.0009,1.9948,1.9948,1.9948,0,0,1.9739,1.9752,1.9765,1.9792,1.9804,1.9826,1.9812,1.9835,1.9851,1.9845,1.9874,1.9883,1.99,1.9934,1.9949,1.9942,2.0001,1.9983,1.9985,1.9987,2.0007,2.0012,2.0018,1.995,1.995,1.9949,0,0,1.9774,1.9786,1.9811,1.9823,1.9842,1.9848,1.9854,1.9871,1.9877,1.9907,1.9903,1.9923,1.9958,1.9971,1.9982,2.0024,2.002,2.003,2.0051,2.0071,2.0076,2.008,2.0095,2.0101,2.0034,2.0034,2.0034,0,1.9788,1.982,1.9824,1.9848,1.9861,1.9857,1.9883,1.9895,1.9919,1.9928,1.9919,1.9964,1.9976,2.0013,2.0023,2.0032,2.004,2.0028,2.0075,2.0079,2.0083,2.0098,2.0104,2.0035,2.0035,2.0035,2.0035,0,1.9837,1.9859,1.9877,1.9901,1.9916,1.9941,1.9949,1.9964,1.9964,1.9971,2.0003,2.0017,2.004,2.0049,2.0049,2.0087,2.0081,2.0074,2.0058,2.009,2.0104,2.011,2.0037,2.0036,2.0036,2.0036,0,0,1.9877,1.9904,1.9911,1.9922,1.9943,1.9961,1.9987,2.001,2.0022,2.004,2.0061,2.0092,2.0086,2.0099,2.0101,2.0118,2.0152,2.0109,2.0109,2.0116,2.0195,2.02,2.0207,2.015,2.0151,2.0152,2.0194,0,1.9914,1.9958,1.9964,2.0003,2.0025,2.0023,2.0045,2.0061,2.0069,2.0088,2.0097,2.0119,2.0109,2.0117,2.0135,2.0144,2.0168,2.0141,2.017,2.0171,2.0165,2.0214,2.0219,2.0258,2.0199,2.02,2.0201,0,1.9962,1.9982,2.0024,2.0043,2.0052,2.0072,2.0095,2.0113,2.0132,2.0136,2.0152,2.0152,2.0179,2.0163,2.0201,2.0183,2.0195,2.0202,2.0203,2.0205,2.0187,2.0217,2.027,2.0276,2.0209,2.0208,2.0208,0,1.9988,2.0025,2.0055,2.0065,2.0088,2.0102,2.0113,2.013,2.0144,2.0164,2.0173,2.0196,2.0208,2.0226,2.0233,2.0221,2.027,2.0255,2.0275,2.0275,2.0285,2.0284,2.034,2.0293,2.0293,2.0293,2.0293,0,2.0028,2.0054,2.0067,2.0085,2.0115,2.0121,2.015,2.016,2.0176,2.0197,2.0197,2.0216,2.0224,2.0246,2.0251,2.0282,2.0287,2.0292,2.0293,2.0292,2.0291,2.0299,2.0297,2.0295,2.0294,2.0294,2.0294,0,2.0061,2.0071,2.0104,2.0124,2.013,2.0151,2.0168,2.0186,2.0195,2.0222,2.0228,2.0242,2.0267,2.0276,2.0306,2.031,2.0346,2.0344,2.0339,2.0339,2.0359,2.0357,2.0422,2.0431,2.0379,2.038,2.038,0,2.0086,2.0106,2.0129,2.0143,2.0154,2.0177,2.0192,2.0199,2.0215,2.0238,2.0254,2.0279,2.03,2.034,2.0353,2.0376,2.0376,2.0397,2.0379,2.0378,2.0376,2.0375,2.0377,2.04,2.04,2.0401,2.0401,0,2.0128,2.0133,2.0154,2.0178,2.0196,2.0214,2.0233,2.0244,2.0255,2.0273,2.0299,2.0315,2.0347,2.0372,2.0397,2.0408,2.0407,2.0407,2.0413,2.0411,2.0408,2.041,2.0348,2.0405,2.0405,2.0404,2.0404,2.0404,2.0158,2.0176,2.0196,2.022,2.0235,2.0252,2.0271,2.0282,2.0304,2.0331,2.0335,2.0363,2.0382,2.0415,2.0428,2.0451,2.0445,2.0453,2.0456,2.0457,2.0459,2.0405,2.0455,2.0455,2.0455,2.0455,2.0455,0,2.0201,2.0214,2.0236,2.0262,2.0282,2.028,2.0301,2.0317,2.0342,2.036,2.0381,2.0412,2.0437,2.0452,2.0478,2.0493,2.0493,2.0499,2.0498,2.0501,2.0463,2.0455,2.0499,2.0499,2.0499,2.0499,2.0499,2.0499,2.0225,2.0256,2.0263,2.0302,2.0315,2.0343,2.0355,2.0372,2.0386,2.0421,2.0442,2.0452,2.047,2.0497,2.052,2.0524,2.0533,2.054,2.0544,2.0508,2.0503,2.0499,2.0492,2.0542,2.0542,2.058,2.058,2.058]},{"header":{"parameterUnit":"m.s-1","parameterCategory":1,"la1":30.2991,"la2":30.254,"lo1":-89.0895,"lo2":-89.0444,"dy":0.0017,"dx":0.0017,"nx":28,"ny":28,"refTime":"2023-10-15T09:00:00:Z","depth":0,"parameterNumber":3,"parameterNumberName":"V-component_of_WINDS"},"data":[0,0,0,0,0,0,0,0,0,0,0,0,0,0,0,0,0,0,0,0,0,0,0,0,0,0,0,0,0,0,0,0,0,0,0,0,0,0,0,0,0,0,0,0,0,0,0,0,0,0,0,0,0,0,0,0,0,0,-8.8337,-8.8339,0,-8.8506,-8.8508,-8.851,-8.8401,-8.8396,-8.8391,-8.8386,-8.8552,-8.8561,-8.857,0,0,0,0,0,0,0,0,0,0,0,0,0,-8.7913,-8.7921,-8.8336,-8.8339,-8.8341,-8.8506,-8.8508,-8.851,-8.8402,-8.8396,-8.839,-8.8384,-8.8549,-8.856,-8.8571,0,0,0,0,0,0,0,0,0,0,0,0,0,-8.8091,-8.7924,-8.8336,-8.8307,-8.8306,-8.8505,-8.8508,-8.8511,-8.8403,-8.8396,-8.8388,-8.8381,-8.8545,-8.8559,-8.8572,-8.8807,0,0,-8.8614,-8.862,0,0,0,0,0,0,0,0,-8.8081,-8.8106,-8.8309,-8.8309,-8.8309,-8.8425,-8.8419,-8.861,-8.8405,-8.8366,-8.8386,-8.8378,-8.8515,-8.8531,-8.8579,-8.8815,-8.8822,-8.8615,-8.8623,-8.8629,-8.8633,0,0,0,0,0,0,0,-8.8069,-8.8098,-8.8403,-8.8312,-8.8312,-8.8283,-8.83,-8.8455,-8.8481,-8.8369,-8.8362,-8.8384,-8.8514,-8.8566,-8.8582,-8.8825,-8.8615,-8.8627,-8.8635,-8.8641,-8.9262,-8.927,0,0,0,0,0,0,-8.806,-8.8089,-8.8398,-8.8408,-8.8174,-8.8297,-8.8316,-8.8395,-8.8479,-8.8484,-8.839,-8.8378,-8.8547,-8.8566,-8.8587,-8.8869,-8.8629,-8.8642,-8.865,-8.9254,-8.9264,-8.9273,0,0,0,0,0,0,-8.8051,-8.8088,-8.8391,-8.8247,-8.8283,-8.8312,-8.8402,-8.8402,-8.8455,-8.8495,-8.8498,-8.8439,-8.8541,-8.8568,-8.8754,-8.8873,-8.8648,-8.866,-8.9244,-8.9257,-8.9269,-8.9434,0,0,0,0,0,0,-8.8039,-8.8086,-8.8177,-8.825,-8.8291,-8.8558,-8.8409,-8.8411,-8.848,-8.8466,-8.8542,-8.8547,-8.8538,-8.8735,-8.8768,-8.8888,-8.8671,-8.9234,-8.925,-8.9265,-8.9418,-8.9451,-8.9478,0,0,0,0,0,-8.8025,-8.8215,-8.8182,-8.822,-8.8406,-8.8565,-8.8588,-8.8576,-8.849,-8.8581,-8.8606,-8.8545,-8.8855,-8.8754,-8.8791,-8.8917,-8.9226,-8.9245,-8.9264,-8.9404,-8.9444,-8.9478,0,0,0,0,0,0,-8.8152,-8.8224,-8.8188,-8.8408,-8.8482,-8.8546,-8.866,-8.8618,-8.8715,-8.8697,-8.8675,-8.8693,-8.8888,-8.892,-8.8807,-8.9149,-8.9027,-8.9054,-8.9121,-8.9159,-8.9189,-8.9177,-8.8682,0,0,0,0,0,-8.8206,-8.8331,-8.8386,-8.8575,-8.8614,-8.8632,-8.87,-8.8684,-8.8758,-8.8787,-8.8826,-8.8899,-8.9012,-8.9087,-8.9194,-8.9422,-8.9437,-8.9527,-8.9557,-8.9582,-8.9605,-8.9729,-8.9769,-8.9335,-8.9335,-8.9334,0,0,-8.8318,-8.8373,-8.8453,-8.8602,-8.8657,-8.8785,-8.8658,-8.8798,-8.8893,-8.8808,-8.8987,-8.9018,-8.9097,-8.9306,-8.9399,-8.9339,-8.9729,-8.9606,-8.9625,-8.9635,-8.9752,-8.9793,-8.983,-8.9348,-8.9345,-8.9343,0,0,-8.8589,-8.8643,-8.8807,-8.8865,-8.8952,-8.8962,-8.9002,-8.9074,-8.9092,-8.9272,-8.9212,-8.9322,-8.9518,-8.9577,-8.9633,-8.9928,-8.9875,-8.9963,-9.0121,-9.0242,-9.0276,-9.0306,-9.0412,-9.045,-8.9986,-8.9987,-8.9987,0,-8.8717,-8.891,-8.8895,-8.9042,-8.9109,-8.9042,-8.9207,-8.9263,-8.9378,-8.9425,-8.9357,-8.9603,-8.9651,-8.9873,-8.9945,-8.9992,-9.0036,-8.9954,-9.0273,-9.0303,-9.0331,-9.0431,-9.0471,-8.9997,-8.9996,-8.9995,-8.9994,0,-8.9063,-8.9198,-8.932,-8.9437,-8.9517,-8.9672,-8.968,-8.9763,-8.974,-8.9758,-8.9942,-8.9997,-9.0115,-9.0166,-9.0144,-9.0386,-9.0345,-9.0276,-9.0152,-9.0383,-9.0477,-9.0515,-9.0012,-9.0008,-9.0005,-9.0002,0,0,-8.9417,-8.9527,-8.9572,-8.9625,-8.9715,-8.9818,-8.9969,-9.0087,-9.0159,-9.0241,-9.0367,-9.0535,-9.0472,-9.0535,-9.0519,-9.0625,-9.0856,-9.0542,-9.0543,-9.0599,-9.1126,-9.1178,-9.1223,-9.0822,-9.0829,-9.0835,-9.1119,0,-8.9694,-8.9961,-8.9954,-9.0202,-9.0326,-9.0264,-9.0396,-9.0465,-9.0486,-9.0592,-9.0613,-9.0734,-9.064,-9.0678,-9.0781,-9.0807,-9.0962,-9.0786,-9.0937,-9.0942,-9.092,-9.1272,-9.1328,-9.1594,-9.1156,-9.1162,-9.1167,0,-9.0052,-9.015,-9.0412,-9.0486,-9.0537,-9.0656,-9.0764,-9.0868,-9.0944,-9.0951,-9.1024,-9.0991,-9.1143,-9.1016,-9.1224,-9.1104,-9.1165,-9.1188,-9.1197,-9.1211,-9.1069,-9.1296,-9.1678,-9.1719,-9.1224,-9.1219,-9.1215,0,-9.0285,-9.0482,-9.0664,-9.0711,-9.0802,-9.0887,-9.0928,-9.0998,-9.1069,-9.1163,-9.1209,-9.1318,-9.1377,-9.1461,-9.1459,-9.1366,-9.167,-9.1542,-9.1679,-9.1679,-9.1745,-9.1741,-9.2144,-9.1785,-9.1784,-9.1783,-9.1783,0,-9.0594,-9.0757,-9.0771,-9.0883,-9.1063,-9.1052,-9.1229,-9.1262,-9.1324,-9.144,-9.1392,-9.1501,-9.1491,-9.1601,-9.1599,-9.1772,-9.1798,-9.1808,-9.1805,-9.1813,-9.1812,-9.1852,-9.1834,-9.1794,-9.1792,-9.179,-9.1788,0,-9.0885,-9.0901,-9.1096,-9.1167,-9.1189,-9.1319,-9.1378,-9.1484,-9.1501,-9.1648,-9.1682,-9.1708,-9.1835,-9.1841,-9.1985,-9.1984,-9.2195,-9.2171,-9.217,-9.2166,-9.2303,-9.229,-9.2746,-9.2805,-9.2407,-9.2411,-9.2414,0,-9.1082,-9.1206,-9.1292,-9.1368,-9.1415,-9.1537,-9.1612,-9.1605,-9.1683,-9.1781,-9.1875,-9.1998,-9.2096,-9.2301,-9.2331,-9.2442,-9.2421,-9.2573,-9.2437,-9.2441,-9.2424,-9.2417,-9.2429,-9.26,-9.2604,-9.2608,-9.2611,0,-9.143,-9.1432,-9.1542,-9.1657,-9.1747,-9.1836,-9.1918,-9.1982,-9.1984,-9.2075,-9.2206,-9.2283,-9.2433,-9.2555,-9.2663,-9.2702,-9.2658,-9.2654,-9.2691,-9.27,-9.2695,-9.27,-9.2243,-9.2643,-9.264,-9.2637,-9.2636,-9.2634,-9.168,-9.1788,-9.1866,-9.1991,-9.2053,-9.2131,-9.2235,-9.2266,-9.2376,-9.25,-9.2488,-9.2634,-9.2707,-9.2848,-9.2897,-9.3009,-9.2956,-9.3011,-9.3024,-9.3038,-9.3053,-9.2677,-9.3028,-9.3027,-9.3026,-9.3026,-9.3025,0,-9.2026,-9.2074,-9.2189,-9.2307,-9.2405,-9.2357,-9.2446,-9.253,-9.266,-9.2733,-9.2832,-9.2983,-9.3102,-9.3142,-9.3257,-9.3339,-9.3322,-9.337,-9.3363,-9.3373,-9.3093,-9.305,-9.3382,-9.3382,-9.3382,-9.3382,-9.3382,-9.3382,-9.2217,-9.2398,-9.241,-9.2621,-9.2666,-9.2811,-9.2866,-9.2938,-9.2997,-9.3169,-9.3268,-9.3295,-9.3355,-9.3475,-9.3581,-9.3589,-9.3634,-9.3691,-9.3691,-9.3429,-9.3393,-9.3359,-9.3318,-9.3701,-9.3701,-9.3962,-9.3964,-9.3966]}]]